User: anonymous   Login
Location: Columbia
(38.9520°N, 92.3340°W)
Time: 12:29:06
(UTC-05:00)
Language:

Iridium 52 - Orbit

View from above orbital plane
View from above orbital plane
View from above satellite
View from above satellite

Ground track
Ground track

The orbit data is extracted from the following two-line orbital elements,

1 25169U 98010A   17229.38899218  .00000154  00000-0  47866-4 0  9995
2 25169  86.3993 324.8067 0002231  93.2019 266.9432 14.34222463 20550
Epoch (UTC): 17 August 2017 09:20:08
Eccentricity: 0.0002231
inclination: 86.3993°
perigee height: 776 km
apogee height: 779 km
right ascension of ascending node: 324.8067°
argument of perigee: 93.2019°
revolutions per day: 14.34222463
mean anomaly at epoch: 266.9432°
orbit number at epoch: 2055

The dashed part of the orbit path shows where the satellite is in the earth's shadow,  

DLR